Location: Killam
(52.7910°N, 111.8608°W)
Time: 21:53:24
(UTC+00:00)

Vanguard 3 - Pass Details

Date: 25 February 2026
Orbit: 507 x 3205 km, 33.4° (Epoch: 11 March)

Event Time Altitude Azimuth Distance (km) Brightness Sun altitude
Rises 20:58:20 0° 223° (SW) 6,888 13.0 26.2°
Reaches altitude 10° 21:04:34 10° 213° (SSW) 5,543 13.2 25.8°
Maximum altitude 21:15:33 24° 169° (SSE) 3,677 11.6 25.1°
Drops below altitude 10° 21:23:25 10° 121° (ESE) 3,869 10.7 24.6°
Sets 21:26:46 0° 108° (ESE) 4,464 10.8 24.3°
